Overview Statistics Trail Chart Weather Telemetry Raw packets
 

This is the latest recevied weather packets stored in our database for station/object KC5DAQ-26. If no packets are shown the sender has not sent any weather packets the latest 10 day(s).

<< 498 499 500 501 502 503 504 >>
Time Temp. Humidity Pressure Rain* Wind** Luminosity Snow
1787867463 36.67° C 53% 1014.6 hPa 0 mm - 563 W/m² -
1787867402 36.67° C 50% 1014.6 hPa 0 mm - 564 W/m² -
1787867344 36.67° C 51% 1014.7 hPa 0 mm - 568 W/m² -
1787867283 36.67° C 51% 1014.7 hPa 0 mm - 570 W/m² -
1787867222 36.67° C 50% 1014.7 hPa 0 mm - 573 W/m² -
1787867162 36.67° C 50% 1014.7 hPa 0 mm - 577 W/m² -
1787867102 36.67° C 49% 1014.8 hPa 0 mm - 578 W/m² -
1787867043 36.67° C 50% 1014.8 hPa 0 mm - 584 W/m² -
1787866983 36.67° C 49% 1014.8 hPa 0 mm - 587 W/m² -
1787866922 36.67° C 49% 1014.9 hPa 0 mm - 587 W/m² -
1787866864 36.67° C 49% 1014.9 hPa 0 mm - 596 W/m² -
1787866804 36.67° C 49% 1014.9 hPa 0 mm - 598 W/m² -
1787866744 36.67° C 47% 1014.9 hPa 0 mm - 605 W/m² -
1787866681 36.67° C 47% 1014.9 hPa 0 mm - 605 W/m² -
1787866624 37.22° C 48% 1014.9 hPa 0 mm - 612 W/m² -
1787866565 36.67° C 48% 1015 hPa 0 mm - 614 W/m² -
1787866502 36.67° C 48% 1015 hPa 0 mm - 619 W/m² -
1787866444 36.67° C 48% 1014.9 hPa 0 mm - 621 W/m² -
1787866382 36.67° C 49% 1015 hPa 0 mm - 623 W/m² -
1787866323 36.67° C 48% 1014.9 hPa 0 mm - 626 W/m² -
1787866264 36.67° C 47% 1014.9 hPa 0 mm - 628 W/m² -
1787866204 36.67° C 48% 1014.9 hPa 0 mm - 630 W/m² -
1787866150 36.67° C 50% 1014.9 hPa 0 mm - 631 W/m² -
1787866082 36.67° C 48% 1015 hPa 0 mm - 635 W/m² -
1787866023 36.67° C 49% 1015 hPa 0 mm - 637 W/m² -

* Rain latest hour (hover to see other rain measurements)
** Current wind speed in m/s (hover to see current wind gust speed)